Wind_Speed
14 13 13 13 13 14 14 14 14 15 15 17 18 18 19 20 19 18 18 13 17 20 21 17 10 7 16 10 12 10 6 11 16 11 5 2 2 2 3 6 4 6 4 1 4
13 14 14 14 15 15 15 15 14 15 17 18 19 21 20 21 22 15 3 6 5 10 16 21 16 11 8 11 11 12 10 16 8 12 6 6 6 4 4 6 5 11 3 6 5
14 15 15 16 16 16 16 15 16 16 17 18 20 22 23 22 14 3 4 3 13 17 11 8 16 12 17 11 16 12 19 18 18 17 15 18 17 8 8 12 14 11 20 13 7
17 17 17 18 18 17 16 16 16 18 19 20 21 24 22 18 5 5 10 18 17 13 9 6 13 9 10 19 20 14 23 26 18 8 10 13 17 19 19 23 18 22 26 29 24
17 17 17 17 17 15 15 14 16 19 21 19 19 21 23 14 7 13 17 17 19 15 9 5 12 16 16 11 21 22 22 18 28 17 18 10 25 23 28 23 27 31 32 34 35
17 17 17 17 16 15 15 11 14 18 21 21 20 25 22 7 10 16 10 15 14 12 10 7 6 13 11 17 18 13 23 26 20 21 24 20 29 27 30 21 22 25 31 32 34
17 17 17 18 17 15 15 15 16 18 22 21 20 24 12 5 18 13 20 16 14 16 18 10 11 11 5 10 15 19 17 12 16 29 20 14 23 36 31 28 35 33 34 37 35
17 16 16 17 16 14 14 15 18 19 19 16 19 18 8 16 22 23 19 16 13 14 15 7 15 8 10 10 9 11 13 22 24 12 11 20 32 32 33 32 37 37 38 35 36
18 17 17 18 17 15 16 17 20 16 9 14 10 9 5 19 21 25 20 16 12 7 10 5 6 9 7 13 8 13 21 26 22 21 19 18 34 22 17 13 27 27 24 24 25
20 19 17 18 16 15 16 18 14 4 14 5 5 6 7 19 24 23 17 15 11 6 2 3 7 10 13 14 19 17 19 19 18 15 22 28 34 24 24 23 26 26 29 32 35
20 19 17 16 14 12 16 16 9 2 15 5 9 10 17 21 22 16 18 8 7 4 1 2 9 18 18 19 21 11 11 17 16 7 20 26 28 25 26 28 29 30 30 33 35
24 21 17 13 13 7 13 7 7 7 11 13 13 15 16 14 10 15 13 3 4 11 3 4 15 13 13 13 18 18 16 9 8 9 7 13 18 15 16 21 27 27 32 33 35
25 23 15 9 7 6 7 8 6 12 4 10 9 8 9 15 8 16 9 5 6 7 7 9 12 6 15 17 14 18 22 20 11 9 15 14 24 24 22 26 31 33 34 36 38
26 23 14 5 3 8 2 11 13 7 3 4 4 1 13 16 4 16 10 3 3 8 7 10 13 13 11 14 15 17 8 11 16 13 13 3 11 16 16 21 21 26 29 35 36
26 21 11 2 4 5 8 12 9 5 4 9 3 6 19 4 13 3 13 3 10 15 10 14 8 8 11 12 11 16 15 12 9 10 11 17 10 15 10 17 14 15 27 31 31
24 16 5 1 6 9 14 12 6 2 4 4 7 12 18 10 18 8 16 7 7 9 13 19 20 8 6 5 8 10 13 17 14 11 14 17 11 22 16 18 17 18 25 23 22
19 7 5 5 7 12 16 2 2 3 4 4 7 12 16 7 13 13 17 7 2 6 3 7 16 18 16 13 12 8 8 7 11 12 17 8 13 23 4 8 14 8 17 23 24
14 1 2 4 8 11 13 1 4 0 4 6 7 16 4 9 12 12 12 7 4 3 5 5 6 7 12 17 15 11 16 7 13 12 15 12 13 8 11 8 15 13 18 21 22
12 2 2 4 9 12 5 1 2 3 3 7 14 3 3 4 9 8 13 7 2 2 5 5 3 9 4 10 8 11 8 18 5 4 7 11 15 14 19 13 8 11 18 24 24
13 4 1 4 8 10 2 2 3 4 7 6 5 3 7 13 10 8 7 4 7 1 2 3 7 3 8 5 8 2 1 9 8 6 8 8 16 8 9 6 9 15 21 27 21
10 1 7 5 9 4 1 3 5 7 7 4 7 9 11 12 6 8 6 12 4 5 4 4 3 3 5 7 10 4 8 6 6 11 3 2 3 1 8 9 14 17 28 28 14
8 1 5 10 2 1 2 6 8 8 2 6 8 11 10 7 8 7 8 6 11 6 9 2 2 6 10 6 5 5 5 10 9 18 10 8 5 4 12 11 16 22 31 24 8
11 5 4 9 2 3 4 6 6 5 5 3 4 4 5 6 6 8 9 6 13 6 4 2 1 5 6 3 3 3 4 6 5 4 14 12 6 10 8 20 25 27 30 22 6
7 3 4 5 3 2 5 5 5 7 12 5 9 10 4 7 10 7 11 9 8 11 11 3 5 10 9 6 6 11 11 11 6 9 14 17 23 26 19 20 21 28 25 20 5
7 2 2 4 2 8 4 5 9 5 4 8 3 6 6 7 18 19 14 13 13 8 8 2 9 12 13 15 14 15 19 19 16 14 10 13 24 22 16 17 21 23 24 17 2
6 4 4 7 9 7 4 3 7 6 6 10 6 13 15 15 18 25 22 16 14 7 11 6 5 11 14 15 16 21 20 20 20 18 17 18 30 20 25 24 23 24 23 15 5
9 6 3 5 3 3 3 3 9 18 12 12 15 17 18 20 23 29 32 32 21 7 9 6 4 6 11 11 12 15 23 24 20 17 17 20 26 21 19 17 21 21 19 19 9
Wind_Direction
10 9 7 1 358 353 352 350 346 343 340 335 332 329 328 326 321 312 302 269 257 253 251 251 234 207 198 208 202 187 226 234 228 208 225 248 267 245 298 273 280 220 233 138 343
6 6 3 359 354 351 348 345 343 342 339 337 338 338 344 338 324 323 16 301 292 336 275 248 233 208 206 206 203 201 220 226 226 210 209 231 242 262 305 276 280 264 164 46 228
-0 360 359 356 353 350 350 350 349 347 346 343 342 341 347 341 339 51 67 5 321 325 331 281 227 213 224 209 204 214 230 230 231 224 225 254 267 270 251 259 243 270 294 310 289
1 359 357 355 353 353 353 354 352 349 346 341 338 340 343 340 356 35 317 305 297 318 319 306 216 201 226 220 213 239 233 235 246 230 227 248 262 254 252 251 272 276 285 289 282
360 357 355 355 356 355 352 353 348 348 346 343 343 347 341 327 300 333 338 303 294 294 312 282 223 213 223 224 225 235 240 237 243 241 236 246 259 265 261 259 271 277 280 280 281
1 357 355 356 356 355 353 349 341 340 344 343 345 339 338 328 342 343 360 7 3 336 321 245 232 230 259 238 222 232 242 246 245 236 239 243 257 261 261 269 268 273 276 278 279
359 356 353 354 353 354 352 347 339 336 333 329 337 339 328 1 352 359 330 326 324 338 336 291 235 233 232 246 247 253 253 236 232 235 236 230 265 252 255 264 268 270 269 273 274
357 353 351 349 347 347 346 345 335 332 334 334 333 338 296 353 349 349 331 319 312 325 333 310 217 257 231 283 257 231 235 241 229 214 232 200 252 252 257 251 251 257 262 263 266
356 353 351 346 344 345 346 341 333 328 344 336 333 333 323 343 341 344 345 326 295 299 332 257 209 220 219 225 247 219 232 228 238 222 221 210 246 248 246 235 247 256 259 263 268
357 355 351 342 340 341 340 339 343 358 343 6 347 329 329 327 329 339 339 318 278 313 53 157 193 220 217 209 219 229 237 251 239 218 217 228 246 250 246 273 265 265 267 270 271
354 351 348 340 339 342 339 351 9 325 336 287 297 271 298 329 333 337 337 307 257 246 251 228 227 223 225 228 245 264 262 247 240 211 222 226 243 244 244 256 263 267 268 268 270
345 344 343 337 338 344 353 37 36 344 309 303 292 275 321 331 298 336 343 355 287 254 172 235 251 261 248 239 237 241 247 242 268 254 255 250 261 257 251 255 260 263 268 270 275
342 338 340 337 347 349 350 18 348 327 263 293 307 287 330 324 304 328 336 319 271 263 253 261 273 283 231 239 241 233 238 239 250 284 283 273 273 265 255 255 258 258 262 266 266
339 332 329 336 9 356 29 341 323 303 264 303 334 345 336 327 263 326 334 310 275 285 268 262 253 220 234 230 231 237 220 229 238 243 249 256 279 268 260 258 251 259 258 259 262
338 334 326 235 341 352 334 323 321 155 299 329 332 312 335 353 317 336 346 236 275 282 258 240 288 221 225 234 217 243 228 251 263 251 262 253 277 261 250 263 263 260 254 258 260
341 338 345 58 8 350 340 331 143 232 263 340 328 334 346 339 335 307 330 301 287 284 258 258 252 261 248 243 221 243 210 220 232 245 247 244 237 278 261 263 259 262 269 266 284
346 356 82 33 357 346 342 130 252 232 349 325 325 330 331 318 330 331 324 320 0 315 285 257 243 238 244 257 246 232 210 184 210 217 237 233 210 240 166 289 293 283 298 291 289
350 41 87 28 355 343 340 179 232 20 282 304 313 315 294 352 335 327 317 307 201 321 292 318 315 215 214 219 242 214 209 202 203 210 235 215 224 243 260 279 283 286 302 306 298
355 164 116 11 358 344 339 99 209 237 269 309 319 302 296 299 324 324 315 290 314 75 334 306 279 304 277 254 205 190 200 225 301 223 226 198 246 271 274 272 312 347 336 329 313
357 177 24 329 338 340 44 266 250 233 306 298 284 252 287 316 323 329 307 287 328 358 208 299 295 217 303 334 200 261 282 190 211 219 213 213 236 242 195 82 23 360 348 331 325
357 176 348 333 335 6 43 277 285 282 299 284 284 282 285 308 300 313 273 293 276 334 262 296 256 271 269 178 255 326 234 229 251 237 286 273 169 322 130 59 6 357 351 348 341
357 279 352 348 339 35 287 312 303 290 283 284 272 267 269 297 291 290 260 267 329 331 309 283 291 284 284 285 294 281 289 255 241 221 241 286 276 145 97 21 356 349 349 351 355
345 310 336 354 13 334 315 292 271 282 288 294 281 279 305 292 294 256 269 269 296 270 280 359 249 304 298 175 106 231 232 266 267 274 251 235 243 149 302 339 338 342 346 349 346
351 329 348 52 56 357 323 294 308 289 281 266 293 285 262 273 263 278 272 294 275 277 271 266 243 248 260 302 314 296 288 276 259 256 245 238 265 270 297 319 326 335 343 347 335
359 12 335 314 340 312 290 278 295 304 326 305 265 247 293 283 299 278 275 277 271 264 242 250 242 235 252 268 272 270 273 271 253 244 254 261 257 270 294 308 314 314 327 337 288
2 344 322 283 294 294 283 261 291 317 320 297 260 282 287 281 277 287 290 274 259 245 237 203 253 225 247 257 261 270 261 255 254 252 247 253 264 272 282 287 299 303 315 331 254
335 312 290 279 291 293 280 304 307 316 292 243 285 288 288 289 299 290 278 274 253 223 199 194 211 220 254 259 272 272 253 245 245 240 239 241 255 264 266 270 282 298 301 310 253
Height
1524 1522 1520 1518 1516 1515 1513 1511 1508 1506 1504 1501 1499 1498 1497 1495 1492 1489 1487 1490 1490 1489 1491 1493 1494 1495 1497 1499 1500 1501 1501 1496 1491 1495 1488 1485 1484 1485 1483 1483 1482 1482 1482 1484 1487
1524 1522 1520 1518 1516 1514 1512 1509 1507 1504 1501 1499 1497 1495 1494 1490 1487 1484 1484 1484 1487 1486 1488 1488 1490 1494 1495 1494 1496 1495 1491 1486 1482 1483 1483 1484 1484 1482 1483 1482 1480 1479 1480 1483 1485
1524 1522 1520 1517 1515 1513 1510 1508 1506 1503 1501 1498 1495 1493 1491 1488 1483 1484 1484 1485 1484 1484 1485 1484 1486 1490 1491 1491 1488 1485 1477 1478 1474 1478 1480 1480 1480 1481 1480 1478 1477 1475 1472 1480 1481
1524 1522 1519 1516 1514 1511 1508 1506 1504 1502 1500 1497 1495 1492 1490 1488 1489 1487 1486 1483 1482 1483 1482 1481 1482 1486 1485 1483 1481 1479 1474 1475 1474 1478 1480 1477 1476 1474 1476 1472 1473 1474 1474 1474 1475
1523 1520 1517 1515 1512 1510 1507 1505 1503 1501 1498 1496 1494 1491 1489 1489 1486 1485 1483 1481 1480 1479 1479 1481 1481 1482 1476 1477 1478 1473 1470 1473 1474 1476 1478 1478 1469 1466 1465 1470 1469 1469 1469 1469 1467
1522 1519 1516 1513 1511 1508 1506 1504 1502 1499 1497 1494 1493 1491 1488 1487 1484 1483 1481 1479 1477 1476 1477 1479 1479 1478 1476 1473 1471 1465 1470 1470 1470 1470 1473 1475 1467 1470 1456 1464 1462 1463 1461 1460 1462
1520 1518 1515 1512 1508 1506 1504 1502 1500 1498 1495 1492 1491 1488 1486 1486 1482 1480 1478 1476 1475 1475 1475 1474 1476 1477 1473 1472 1469 1468 1468 1467 1465 1466 1466 1473 1467 1444 1459 1460 1456 1455 1455 1455 1455
1519 1516 1513 1510 1507 1505 1502 1500 1497 1495 1492 1490 1489 1487 1483 1482 1479 1478 1476 1473 1472 1471 1471 1469 1471 1472 1472 1470 1465 1465 1466 1462 1452 1461 1460 1468 1448 1437 1451 1453 1448 1449 1449 1450 1448
1517 1514 1511 1508 1505 1502 1500 1498 1495 1493 1491 1490 1489 1489 1484 1481 1477 1474 1472 1469 1468 1467 1465 1465 1467 1470 1469 1469 1467 1458 1447 1446 1450 1451 1456 1458 1433 1438 1445 1444 1439 1441 1443 1442 1441
1515 1512 1510 1506 1503 1501 1498 1496 1492 1491 1490 1488 1488 1489 1483 1480 1475 1472 1470 1467 1466 1465 1464 1464 1466 1461 1461 1460 1447 1447 1449 1444 1444 1445 1449 1447 1429 1438 1439 1441 1437 1437 1437 1436 1435
1514 1511 1508 1505 1502 1500 1497 1494 1495 1493 1490 1489 1489 1488 1482 1480 1473 1470 1467 1464 1464 1464 1462 1463 1460 1450 1453 1454 1451 1451 1447 1445 1441 1443 1440 1436 1432 1431 1437 1437 1433 1431 1430 1429 1426
1512 1510 1506 1503 1501 1500 1498 1497 1499 1501 1493 1487 1484 1483 1480 1478 1473 1469 1466 1466 1464 1459 1460 1460 1455 1454 1456 1452 1453 1452 1451 1450 1448 1444 1445 1438 1434 1432 1432 1429 1428 1427 1423 1420 1418
1512 1507 1505 1502 1501 1500 1499 1499 1499 1499 1499 1486 1483 1480 1479 1477 1471 1467 1466 1463 1461 1459 1456 1455 1450 1451 1450 1449 1448 1446 1447 1447 1450 1444 1439 1439 1428 1424 1421 1421 1420 1418 1415 1413 1410
1510 1505 1502 1501 1502 1499 1499 1498 1497 1496 1494 1485 1482 1480 1478 1471 1469 1464 1463 1463 1461 1457 1454 1449 1443 1444 1444 1444 1444 1445 1444 1442 1443 1447 1444 1437 1427 1412 1409 1408 1409 1409 1407 1404 1402
1507 1502 1499 1499 1500 1499 1500 1497 1494 1496 1484 1484 1481 1479 1476 1474 1471 1463 1462 1459 1456 1454 1455 1444 1443 1440 1439 1440 1440 1440 1441 1442 1444 1444 1444 1437 1441 1396 1398 1397 1397 1398 1396 1394 1392
1505 1501 1498 1499 1498 1498 1496 1493 1494 1493 1483 1482 1480 1478 1474 1471 1466 1462 1460 1458 1454 1451 1446 1443 1441 1440 1436 1435 1437 1434 1434 1437 1441 1442 1442 1434 1440 1390 1392 1389 1391 1388 1389 1389 1388
1503 1500 1499 1499 1499 1496 1494 1493 1493 1486 1488 1483 1481 1477 1474 1471 1465 1464 1460 1456 1456 1456 1446 1436 1433 1433 1434 1436 1432 1435 1435 1438 1444 1439 1432 1420 1432 1394 1385 1392 1390 1386 1385 1385 1382
1501 1500 1499 1499 1497 1495 1493 1493 1490 1491 1487 1483 1481 1477 1473 1470 1466 1463 1459 1455 1456 1453 1453 1444 1435 1428 1427 1430 1427 1426 1428 1420 1429 1424 1419 1424 1416 1391 1385 1385 1384 1385 1382 1378 1376
1500 1499 1499 1498 1496 1494 1493 1491 1491 1490 1487 1484 1478 1475 1473 1470 1471 1465 1459 1456 1451 1450 1455 1445 1438 1430 1426 1422 1425 1420 1424 1418 1423 1418 1416 1407 1397 1388 1384 1383 1383 1382 1380 1375 1370
1499 1498 1498 1497 1495 1493 1492 1492 1490 1489 1487 1484 1482 1476 1472 1467 1469 1466 1460 1453 1449 1449 1451 1446 1440 1428 1429 1425 1422 1422 1416 1422 1420 1419 1415 1395 1396 1386 1379 1383 1385 1382 1380 1373 1366
1498 1497 1497 1495 1494 1494 1494 1493 1490 1487 1487 1484 1479 1476 1471 1469 1467 1466 1461 1453 1451 1449 1450 1446 1444 1431 1428 1429 1427 1435 1418 1415 1412 1408 1403 1398 1383 1377 1380 1387 1385 1381 1377 1370 1364
1498 1497 1496 1495 1496 1499 1495 1495 1492 1486 1484 1483 1479 1475 1472 1470 1467 1464 1459 1455 1451 1451 1447 1445 1443 1436 1426 1422 1424 1424 1419 1413 1410 1409 1407 1407 1392 1376 1382 1385 1385 1380 1376 1372 1369
1501 1498 1496 1495 1496 1496 1496 1494 1491 1486 1482 1481 1478 1476 1473 1471 1470 1463 1455 1451 1451 1448 1444 1444 1439 1434 1418 1421 1420 1420 1418 1418 1417 1415 1408 1407 1389 1377 1378 1381 1383 1381 1377 1374 1372
1505 1501 1498 1497 1499 1500 1498 1490 1486 1484 1481 1481 1478 1475 1472 1467 1465 1460 1454 1449 1447 1446 1444 1445 1439 1434 1429 1423 1428 1426 1421 1418 1420 1412 1406 1403 1393 1380 1383 1387 1384 1382 1380 1377 1374
1508 1507 1506 1499 1498 1499 1500 1493 1487 1483 1481 1478 1476 1474 1472 1465 1458 1450 1445 1444 1442 1440 1441 1444 1437 1432 1429 1428 1427 1424 1420 1418 1415 1414 1414 1403 1391 1388 1390 1391 1388 1385 1381 1377 1376
1510 1510 1507 1502 1500 1497 1493 1488 1484 1482 1483 1476 1474 1470 1467 1462 1456 1444 1442 1439 1438 1435 1436 1439 1430 1426 1424 1423 1421 1415 1410 1409 1409 1408 1408 1411 1391 1395 1394 1391 1386 1383 1380 1377 1377
1510 1508 1508 1500 1498 1497 1491 1487 1484 1484 1475 1472 1469 1464 1458 1452 1446 1439 1433 1429 1429 1428 1429 1431 1428 1424 1420 1418 1415 1408 1395 1394 1395 1396 1398 1398 1386 1389 1387 1386 1383 1379 1377 1375 1375